Showing default

KL-ALPHA B, 44786

Orbit data source: Space-Track

KL-ALPHA B, 44786 is a German payload satellite in LEO that was launched on Sun, 17 Nov 2019 UTC via a KUAIZHOU-1A launch vehicle from the Jiuquan Satellite Launch Center, China (JSC). Payload-class satellites include a variety of spacecraft equipped with specific instruments for various scientific and technological missions. These include communications satellites like Starlink; space stations such as the ISS; scientific satellites like the Hubble; Earth observation satellites from companies like Planet Labs, Umbra, and HawkEye 360; GPS; miniature CubeSats for education and research; and military/defense satellites.

Loading next visibility...
Identifier
44786, 2019-077B
Orbit
LEO
Country
Flag of DEDE / GER
Related business
Manufacturer
IMI/CAS
Mission
Operational Commercial Communications
Bus & Motor
KLA, Unknown motor
Mass
90 kg wet, ~85 kg dry
Launch date (UTC)
2019-11-17 (6 years ago)
Launch vehicle
KUAIZHOU-1A
Launch site
Jiuquan Satellite Launch Center, China (JSC)
Object type
Payload
Rocket body
Debris
Shape & HBR
Box + 1 Pan, Unknown HBR
Radar Cross Section
0.900 m², Medium (>0.1 m² and < 1m²)

Expand to show TLE details & history
Last TLE update: 4 hours ago

TLE from 4 hours ago
0 KL-ALPHA B
1 44786U 19077B   26095.29694830  .00000180  00000-0  23890-3 0  9990
2 44786  88.9083 228.2246 0026504   7.0014 353.1505 13.55994699315306
Epoch: 2026-04-05T07:07Z
TLE epoch observation values (Epoch: 2026-04-05T07:07:36.333Z)
Latitude
0.00001°
Longitude
-72.28119°
Altitude
1,033.693 km
Speed
7.345 km/s
True Right ascension
15h 12m 53s
True Declination
0° 00' 00"
Sunlit
Object was in full shadow at epoch
Visualization orbit readout
Latitude
Unknown
Longitude
Unknown
Altitude
Unknown
Speed
Unknown
Apparent Right ascension
Unknown
Apparent Declination
Unknown
Sunlit
N/A
Visualization observer readout
Local Sidereal Time
16:42:41
Azimuth
Unknown
Elevation
Unknown
Doppler factor
Unknown
Orbital elements
Apogee altitude
1,067.009 km
Perigee altitude
1,027.648 km
Semi-major axis
7,425.465 km
Eccentricity
0.00265
Inclination
88.9083°
RAAN
228.2246°
Arg. of periapsis
7.0014°
True anomaly
353.11416°
Mean anomaly
353.1505°
Eccentric anomaly
353.13234°
Mean motion
3.39201 °/min
Orbital period
106.13 mins
BSTAR
0.0002389
Loading maneuver chart data...
Computing Atmospheric mass density...
Loading historical data...
Loading historical data...
Loading historical data...
Loading historical data...
Loading historical data...
Loading historical data...
Loading historical data...
Other satellites on launch #77 in the year 2019 (2019-11-17 UTC)

Documentation

Showing up to 5 results
|